Overview Statistics Trail Chart Weather Telemetry Raw packets
 

This is the latest recevied weather packets stored in our database for station/object KO4DYK. If no packets are shown the sender has not sent any weather packets the latest 10 day(s).

<< 73 74 75 76 77 78 79 >>
Time Temp. Humidity Pressure Rain* Wind** Luminosity Snow
1788133795 32.22° C 69% 1018 hPa 0 mm - 23 W/m² -
1788133490 32.22° C 66% 1018 hPa 0 mm - 26 W/m² -
1788133186 32.22° C 63% 1017.9 hPa 0 mm - 29 W/m² -
1788132881 32.22° C 62% 1017.9 hPa 0 mm - 32 W/m² -
1788132577 32.78° C 62% 1018 hPa 0 mm - 34 W/m² -
1788132273 32.78° C 62% 1017.9 hPa 0 mm - 36 W/m² -
1788131969 32.78° C 62% 1018 hPa 0 mm - 39 W/m² -
1788131664 32.78° C 66% 1018 hPa 0 mm - 41 W/m² -
1788131363 32.78° C 62% 1017.7 hPa 0 mm - 45 W/m² -
1788131059 32.78° C 63% 1017.9 hPa 0 mm - 46 W/m² -
1788130758 32.78° C 62% 1017.8 hPa 0 mm - 46 W/m² -
1788130454 33.33° C 61% 1017.8 hPa 0 mm - 41 W/m² -
1788130148 33.89° C 60% 1018 hPa 0 mm - 43 W/m² -
1788129847 34.44° C 57% 1017.6 hPa 0 mm - 59 W/m² -
1788129544 34.44° C 57% 1017.9 hPa 0 mm - 85 W/m² -
1788129240 33.89° C 58% 1017.8 hPa 0 mm - 104 W/m² -
1788128939 34.44° C 57% 1017.5 hPa 0 mm - 216 W/m² -
1788128635 34.44° C 57% 1017.7 hPa 0 mm - 116 W/m² -
1788128330 34.44° C 57% 1017.7 hPa 0 mm - 271 W/m² -
1788128026 33.89° C 58% 1017.8 hPa 0 mm - 245 W/m² -
1788127722 33.33° C 59% 1017.9 hPa 0 mm - 216 W/m² -
1788127416 33.89° C 59% 1017.8 hPa 0 mm - 135 W/m² -
1788127114 34.44° C 58% 1018 hPa 0 mm - 115 W/m² -
1788126814 34.44° C 58% 1017.9 hPa 0 mm - 344 W/m² -
1788126514 34.44° C 56% 1017.9 hPa 0 mm - 284 W/m² -

* Rain latest hour (hover to see other rain measurements)
** Current wind speed in m/s (hover to see current wind gust speed)